User: anonymous   Login
Location: Habighorst
(52.7089°N, 10.2278°E)
Time: 09:50:58
(UTC+00:00)
Language:

ARIANE 6 FM1 Upper Stage - Orbit

View from above orbital plane
View from above orbital plane
View from above satellite
View from above satellite

Ground track
Ground track

The orbit is defined by the following mean orbital elements,

1 60235U          26075.77087250 +.00000000 +00000-0 +22098-3 0 00009
2 60235  61.9940 192.5919 0059891 114.2370 246.4994 15.00697456    04
Epoch (UTC): 16 March 2026 18:30:03
Eccentricity: 0.0059891
inclination: 61.9940°
perigee height: 523 km
apogee height: 606 km
right ascension of ascending node: 192.5919°
argument of perigee: 114.2370°
revolutions per day: 15.00697456
mean anomaly at epoch: 246.4994°

The dashed part of the orbit path shows where the satellite is in the earth's shadow,  

DLR